CW3766 Centreville VA US current weather conditions

sailwx.info

Wind from 100

Air temperature 2.2° C
Dewpoint -4.1° C

Last reported at 2019-Dec-07 09:01 UTC.
Time now 2019-Dec-07 09:20 UTC

Location: N 38°51' W 077°27'.
View on Google Maps.

See reports from other nearby stations

  
Tides and Currents Weather Stations Pressure Air Temp Water Temp Dewpoint Dewpoint Depression Visibility Wind Speed Wind Dir Waves Ship Positions
date/time (UTC)wind fromknots sea level pressurealtimeterstation pressurevisibilityair tempwater tempwave heightnotes
2019-Dec-07 09:01 100 2.2
2019-Dec-07 08:56 076 2.2
2019-Dec-07 08:51 076 2.2
2019-Dec-07 08:46 076 2.2
2019-Dec-07 08:41 092 2.8
2019-Dec-07 08:36 109 2.8
2019-Dec-07 08:31 173 2.8
2019-Dec-07 08:26 173 2.8
2019-Dec-07 08:21 173 2.8
2019-Dec-07 08:16 075 2.8
2019-Dec-07 08:11 164 3.3
2019-Dec-07 08:06 164 3.3
2019-Dec-07 08:01 168 3.3
2019-Dec-07 07:56 162 3.3
2019-Dec-07 07:51 200 3.3
2019-Dec-07 07:46 200 3.3
2019-Dec-07 07:41 200 3.9
2019-Dec-07 07:36 201 3.9
2019-Dec-07 07:31 030 3.9
2019-Dec-07 07:26 029 3.9
2019-Dec-07 07:21 025 4.4
2019-Dec-07 07:16 025 4.4
2019-Dec-07 07:11 031 4.4
2019-Dec-07 07:06 020 4.4
2019-Dec-07 07:01 031 5.0
2019-Dec-07 06:56 062 0 gusting 2 5.0
2019-Dec-07 06:51 003 5.0
2019-Dec-07 06:46 070 5.6
2019-Dec-07 06:41 071 5.6
2019-Dec-07 06:36 076 5.6
2019-Dec-07 06:31 083 5.6
2019-Dec-07 06:26 065 0 gusting 4 5.6
2019-Dec-07 06:21 076 0 gusting 2 6.1
2019-Dec-07 06:16 042 0 gusting 2 6.1
2019-Dec-07 06:11 048 0 gusting 2 6.1
2019-Dec-07 06:06 071 0 gusting 6 6.1
2019-Dec-07 06:01 061 0 gusting 5 6.1
2019-Dec-07 05:56 089 0 gusting 4 6.7
2019-Dec-07 05:51 059 0 gusting 2 6.7
2019-Dec-07 05:46 043 0 gusting 2 6.7
2019-Dec-07 05:41 046 6.7
2019-Dec-07 05:11 001 7.2
2019-Dec-07 05:06 054 7.2
2019-Dec-07 05:01 057 7.2
2019-Dec-07 04:56 081 0 gusting 4 7.2
2019-Dec-07 04:51 046 7.2
2019-Dec-07 04:46 064 7.2
2019-Dec-07 04:41 047 7.2
2019-Dec-07 04:36 070 7.2
2019-Dec-07 04:31 078 7.2
2019-Dec-07 04:26 065 0 gusting 2 7.8
2019-Dec-07 04:21 045 0 gusting 2 7.8
2019-Dec-07 04:16 022 0 gusting 2 7.8
2019-Dec-07 04:11 025 0 gusting 2 7.8
2019-Dec-07 04:06 059 0 gusting 5 7.8
2019-Dec-07 04:01 051 0 gusting 5 8.3
2019-Dec-07 03:56 071 8.3
2019-Dec-07 03:51 057 0 gusting 2 8.3
2019-Dec-07 03:46 065 0 gusting 5 8.9
2019-Dec-07 03:41 047 1 gusting 6 8.9
2019-Dec-07 03:36 077 0 gusting 6 9.4
2019-Dec-07 03:31 030 1 gusting 7 9.4
2019-Dec-07 03:26 049 9.4
2019-Dec-07 03:21 113 9.4
2019-Dec-07 03:16 262 9.4
2019-Dec-07 03:11 059 9.4
2019-Dec-07 03:01 089 8.9
2019-Dec-07 02:56 272 8.9
2019-Dec-07 02:51 272 8.9
2019-Dec-07 02:46 271 8.9
2019-Dec-07 02:41 289 8.9
2019-Dec-07 02:36 059 8.9
2019-Dec-07 02:31 050 8.9
2019-Dec-07 02:26 050 8.9
2019-Dec-07 02:21 050 8.9
2019-Dec-07 02:16 050 8.9
2019-Dec-07 02:11 052 8.9
2019-Dec-07 02:06 081 8.9
2019-Dec-07 02:01 081 8.9
2019-Dec-07 01:56 081 8.9
2019-Dec-07 01:51 081 8.9
2019-Dec-07 01:46 240 8.9
2019-Dec-07 01:41 240 8.9
2019-Dec-07 01:36 053 8.3
2019-Dec-07 01:31 050 8.3
2019-Dec-07 01:26 050 8.3
2019-Dec-07 01:21 050 8.3
2019-Dec-07 01:16 050 8.3
2019-Dec-07 01:11 324 8.3
2019-Dec-07 01:06 312 8.3
2019-Dec-07 01:01 312 8.3
2019-Dec-07 00:56 312 8.3
2019-Dec-07 00:51 312 8.3
2019-Dec-07 00:46 312 8.3
2019-Dec-07 00:41 312 8.3
2019-Dec-07 00:36 312 8.3
2019-Dec-07 00:31 312 8.3
2019-Dec-07 00:26 309 8.3
2019-Dec-07 00:21 309 8.3
2019-Dec-07 00:16 309 8.3
2019-Dec-07 00:11 309 8.3
2019-Dec-07 00:06 309 8.3
2019-Dec-07 00:01 309 8.3
2019-Dec-06 23:56 309 8.3
2019-Dec-06 23:51 309 8.3
2019-Dec-06 23:46 309 8.3
2019-Dec-06 23:41 309 8.3
2019-Dec-06 23:36 309 8.3
2019-Dec-06 23:31 309 8.3
2019-Dec-06 23:26 309 8.9
2019-Dec-06 23:21 309 8.9
2019-Dec-06 23:16 309 8.9
2019-Dec-06 23:11 309 8.9
2019-Dec-06 23:06 309 8.9
2019-Dec-06 23:01 309 8.9
2019-Dec-06 22:56 309 8.9
2019-Dec-06 22:51 309 8.9
2019-Dec-06 22:46 309 8.9
2019-Dec-06 22:41 309 8.9
2019-Dec-06 22:36 309 9.4
2019-Dec-06 22:31 309 9.4
2019-Dec-06 22:26 309 9.4
2019-Dec-06 22:21 309 9.4
2019-Dec-06 22:16 309 9.4
2019-Dec-06 22:11 309 9.4
2019-Dec-06 22:06 309 9.4
2019-Dec-06 22:01 309 9.4
2019-Dec-06 21:56 309 9.4
2019-Dec-06 21:51 301 9.4
2019-Dec-06 21:46 301 9.4
2019-Dec-06 21:41 301 9.4
2019-Dec-06 21:36 301 9.4
2019-Dec-06 21:31 301 9.4
2019-Dec-06 21:26 300 9.4
2019-Dec-06 21:21 300 9.4
2019-Dec-06 21:16 300 9.4
2019-Dec-06 21:11 300 9.4
2019-Dec-06 21:06 349 9.4
2019-Dec-06 21:01 350 9.4
2019-Dec-06 20:56 354 9.4
2019-Dec-06 20:51 354 10.0
2019-Dec-06 20:46 079 10.0
2019-Dec-06 20:41 077 10.0
2019-Dec-06 20:36 286 10.0
2019-Dec-06 20:31 302 10.0
2019-Dec-06 20:26 240 10.0
2019-Dec-06 20:21 240 10.0
2019-Dec-06 20:16 240 9.4
2019-Dec-06 20:11 240 9.4
2019-Dec-06 20:06 240 9.4
2019-Dec-06 20:01 240 9.4
2019-Dec-06 19:56 240 9.4
2019-Dec-06 19:51 273 9.4
2019-Dec-06 19:46 278 9.4
2019-Dec-06 19:41 113 9.4
2019-Dec-06 19:36 351 9.4
2019-Dec-06 19:31 299 9.4
2019-Dec-06 19:26 306 9.4
2019-Dec-06 19:21 324 9.4
2019-Dec-06 19:16 283 9.4
2019-Dec-06 19:11 329 9.4
2019-Dec-06 19:06 300 9.4
2019-Dec-06 19:01 284 9.4
2019-Dec-06 18:56 011 9.4
2019-Dec-06 18:51 300 9.4
2019-Dec-06 18:46 297 9.4
2019-Dec-06 18:41 316 9.4
2019-Dec-06 18:36 316 9.4
2019-Dec-06 18:31 013 9.4
2019-Dec-06 18:26 267 8.9
2019-Dec-06 18:21 335 8.9
2019-Dec-06 18:16 298 8.9
2019-Dec-06 18:11 291 8.9
2019-Dec-06 18:06 264 8.9
2019-Dec-06 18:01 282 8.3
2019-Dec-06 17:56 281 8.3
2019-Dec-06 17:51 287 8.3
2019-Dec-06 17:46 304 8.3
2019-Dec-06 17:41 311 8.3
2019-Dec-06 17:36 302 8.3
2019-Dec-06 17:31 299 8.3
2019-Dec-06 17:26 289 7.8
2019-Dec-06 17:21 251 7.8
2019-Dec-06 17:16 240 7.8
2019-Dec-06 17:11 240 7.8
2019-Dec-06 17:06 240 7.8
2019-Dec-06 17:01 254 7.8
2019-Dec-06 16:56 270 7.8
2019-Dec-06 16:51 270 7.8
2019-Dec-06 16:46 270 7.8
2019-Dec-06 16:41 256 7.8
2019-Dec-06 16:36 254 7.8
2019-Dec-06 16:31 267 7.8
2019-Dec-06 16:26 272 7.8
2019-Dec-06 16:21 273 7.8
2019-Dec-06 16:16 295 7.8
2019-Dec-06 16:11 296 7.8
2019-Dec-06 16:06 227 7.8
2019-Dec-06 16:01 323 7.8
2019-Dec-06 15:56 293 7.8
2019-Dec-06 15:51 262 7.8
2019-Dec-06 15:46 269 7.2
2019-Dec-06 15:41 270 7.2
2019-Dec-06 15:36 270 7.2
2019-Dec-06 15:31 254 6.7
2019-Dec-06 15:26 235 6.7
2019-Dec-06 15:21 280 6.7
2019-Dec-06 15:16 312 6.1
2019-Dec-06 15:11 295 6.1
2019-Dec-06 15:06 320 6.1
2019-Dec-06 15:01 310 0 gusting 2 5.6
2019-Dec-06 14:56 293 5.0
2019-Dec-06 14:51 242 5.0
2019-Dec-06 14:46 302 4.4
2019-Dec-06 14:41 302 4.4
2019-Dec-06 14:36 297 3.9
2019-Dec-06 14:31 323 3.9
2019-Dec-06 14:26 319 3.9
2019-Dec-06 14:21 003 3.3
2019-Dec-06 14:16 006 3.3
2019-Dec-06 14:11 336 2.8
2019-Dec-06 14:06 341 2.8
2019-Dec-06 14:01 327 2.2
2019-Dec-06 13:56 325 2.2
2019-Dec-06 13:51 325 1.7
2019-Dec-06 13:46 325 1.7
2019-Dec-06 13:41 298 1.1
2019-Dec-06 13:36 298 1.1
2019-Dec-06 13:31 308 0.6
2019-Dec-06 13:26 211 -0.0
2019-Dec-06 13:21 212 -0.6
2019-Dec-06 13:16 210 -0.6
2019-Dec-06 13:11 210 -0.6
2019-Dec-06 13:06 210 -1.1
2019-Dec-06 13:01 210 -1.1
2019-Dec-06 12:56 210 -1.1
2019-Dec-06 12:51 210 -1.1
2019-Dec-06 12:46 210 -1.1
2019-Dec-06 12:41 210 -1.1
2019-Dec-06 12:36 210 -1.1
2019-Dec-06 12:31 210 -1.1
2019-Dec-06 12:26 210 -1.1
2019-Dec-06 12:21 210 -1.1
2019-Dec-06 12:16 210 -0.6
2019-Dec-06 12:11 210 -0.6
2019-Dec-06 12:06 210 -0.6
2019-Dec-06 12:01 210 -0.6
2019-Dec-06 11:56 210 -0.6
2019-Dec-06 11:51 210 -0.6
2019-Dec-06 11:46 210 -0.6
2019-Dec-06 11:41 210 -0.6
2019-Dec-06 11:36 210 -0.6
2019-Dec-06 11:31 210 -0.6
2019-Dec-06 11:26 210 -0.6
2019-Dec-06 11:21 210 -0.6
2019-Dec-06 11:16 210 -0.0
2019-Dec-06 11:11 210 -0.0
2019-Dec-06 11:06 210 -0.0
2019-Dec-06 11:01 210 -0.0
2019-Dec-06 10:56 210 -0.0
2019-Dec-06 10:51 210 -0.0
2019-Dec-06 10:46 210 -0.0
2019-Dec-06 10:41 210 -0.0
2019-Dec-06 10:36 210 -0.0
2019-Dec-06 10:31 210 -0.0
2019-Dec-06 10:26 210 0.6
2019-Dec-06 10:21 210 0.6
2019-Dec-06 10:16 210 0.6
2019-Dec-06 10:11 210 0.6
2019-Dec-06 10:06 210 0.6
2019-Dec-06 10:01 210 0.6
2019-Dec-06 09:56 210 0.6
2019-Dec-06 09:51 210 0.6
2019-Dec-06 09:46 210 0.6
2019-Dec-06 09:41 210 0.6
2019-Dec-06 09:36 210 0.6
2019-Dec-06 09:31 210 0.6
2019-Dec-06 09:26 210 0.6
2019-Dec-06 09:21 210 0.6
2019-Dec-06 09:16 210 0.6
2019-Dec-06 09:11 210 0.6
2019-Dec-06 09:06 210 0.6
2019-Dec-06 09:01 210 0.6
2019-Dec-06 08:56 210 0.6
2019-Dec-06 08:51 210 0.6
2019-Dec-06 08:46 210 0.6
2019-Dec-06 08:41 210 0.6
2019-Dec-06 08:36 210 0.6
2019-Dec-06 08:31 210 1.1
2019-Dec-06 08:26 210 1.1
2019-Dec-06 08:21 210 1.1
2019-Dec-06 08:16 210 1.1
2019-Dec-06 08:11 210 1.1
2019-Dec-06 08:06 210 1.1
2019-Dec-06 08:01 210 1.1
2019-Dec-06 07:56 210 1.1
2019-Dec-06 07:51 210 1.1
2019-Dec-06 07:46 210 1.1
2019-Dec-06 07:41 210 1.1
2019-Dec-06 07:36 210 1.1
2019-Dec-06 07:31 210 1.1
2019-Dec-06 07:26 210 1.1
2019-Dec-06 07:21 210 1.1
2019-Dec-06 07:16 210 1.1
2019-Dec-06 07:11 210 1.1
2019-Dec-06 07:06 210 1.1
2019-Dec-06 07:01 210 1.1
2019-Dec-06 06:56 210 1.1
2019-Dec-06 06:51 210 1.1
2019-Dec-06 06:46 210 1.1
2019-Dec-06 06:41 210 1.1
2019-Dec-06 06:36 210 1.1
2019-Dec-06 06:31 210 1.1
2019-Dec-06 06:26 210 1.1
2019-Dec-06 06:21 210 1.1
2019-Dec-06 06:16 210 1.1
2019-Dec-06 06:11 210 1.1
2019-Dec-06 06:06 210 1.1
2019-Dec-06 06:01 210 1.1
2019-Dec-06 05:56 210 1.1
2019-Dec-06 05:51 210 1.1
2019-Dec-06 05:46 210 1.1
2019-Dec-06 05:41 210 1.1
2019-Dec-06 05:36 210 0.6
2019-Dec-06 05:31 210 0.6
2019-Dec-06 05:26 210 0.6
2019-Dec-06 05:21 210 0.6
2019-Dec-06 05:16 210 0.6
2019-Dec-06 05:11 210 0.6
2019-Dec-06 05:06 210 0.6
2019-Dec-06 05:01 210 0.6
2019-Dec-06 04:56 210 0.6
2019-Dec-06 04:51 210 0.6
2019-Dec-06 04:46 210 0.6
2019-Dec-06 04:41 210 0.6
2019-Dec-06 04:36 210 0.6
2019-Dec-06 04:31 210 0.6
2019-Dec-06 04:26 210 0.6
2019-Dec-06 04:21 210 0.6
2019-Dec-06 04:16 210 0.6
2019-Dec-06 04:11 210 0.6
2019-Dec-06 04:06 210 0.6
2019-Dec-06 04:01 210 0.6
2019-Dec-06 03:56 210 1.1
2019-Dec-06 03:51 210 1.1
2019-Dec-06 03:46 210 0.6
2019-Dec-06 03:41 210 0.6
2019-Dec-06 03:36 210 0.6
2019-Dec-06 03:31 210 0.6
2019-Dec-06 03:26 210 1.1
2019-Dec-06 03:21 210 1.1
2019-Dec-06 03:16 210 1.1
2019-Dec-06 03:11 210 1.1
2019-Dec-06 03:06 210 1.1
2019-Dec-06 03:01 210 1.1
2019-Dec-06 02:56 210 1.1
2019-Dec-06 02:51 210 1.1
2019-Dec-06 02:46 210 1.1
2019-Dec-06 02:41 210 1.1
2019-Dec-06 02:36 210 1.1
2019-Dec-06 02:31 210 1.1
2019-Dec-06 02:26 210 1.1
2019-Dec-06 02:21 210 1.1
2019-Dec-06 02:16 210 1.1
2019-Dec-06 02:11 210 1.1
2019-Dec-06 02:06 210 1.7
2019-Dec-06 02:01 210 1.7
2019-Dec-06 01:56 210 1.7
2019-Dec-06 01:51 210 1.7
2019-Dec-06 01:46 210 1.7
2019-Dec-06 01:41 210 1.7
2019-Dec-06 01:36 210 1.7
2019-Dec-06 01:31 210 2.2
2019-Dec-06 01:26 210 2.2
2019-Dec-06 01:21 210 2.2
2019-Dec-06 01:16 210 2.2
2019-Dec-06 01:11 210 2.2
2019-Dec-06 01:06 210 2.2
2019-Dec-06 01:01 210 2.8
2019-Dec-06 00:56 210 2.8
2019-Dec-06 00:51 210 2.8
2019-Dec-06 00:46 210 2.8
2019-Dec-06 00:41 210 3.3
2019-Dec-06 00:36 210 3.3
2019-Dec-06 00:31 210 3.3
2019-Dec-06 00:26 210 3.3
2019-Dec-06 00:21 210 3.9
2019-Dec-06 00:16 210 3.9
2019-Dec-06 00:11 210 3.9
2019-Dec-06 00:06 210 3.9
2019-Dec-06 00:01 210 3.9
2019-Dec-05 23:56 210 4.4
2019-Dec-05 23:51 210 4.4
2019-Dec-05 23:46 210 4.4
2019-Dec-05 23:41 210 4.4
2019-Dec-05 23:36 210 5.0
2019-Dec-05 23:31 210 5.0
2019-Dec-05 23:26 210 5.0
2019-Dec-05 23:21 210 5.0
2019-Dec-05 23:16 210 5.0
2019-Dec-05 23:11 210 5.0
2019-Dec-05 23:06 210 5.0
2019-Dec-05 22:56 210 5.0
2019-Dec-05 22:51 210 5.6
2019-Dec-05 22:46 210 5.6
2019-Dec-05 22:41 215 5.6
2019-Dec-05 22:36 195 5.6
2019-Dec-05 22:31 194 5.6
2019-Dec-05 22:26 111 5.6
2019-Dec-05 22:21 194 5.6
2019-Dec-05 22:16 194 5.6
2019-Dec-05 22:11 194 6.1
2019-Dec-05 22:06 080 6.1
2019-Dec-05 22:01 069 6.1
2019-Dec-05 21:56 052 6.1
2019-Dec-05 21:51 052 6.1
2019-Dec-05 21:46 082 6.7
2019-Dec-05 21:41 159 6.7
2019-Dec-05 21:36 306 6.7
2019-Dec-05 21:31 232 6.7
2019-Dec-05 21:26 218 6.7
2019-Dec-05 21:21 253 6.7
2019-Dec-05 21:16 182 6.7
2019-Dec-05 21:11 215 0 gusting 5 6.7
2019-Dec-05 21:06 176 1 gusting 6 6.7
2019-Dec-05 21:01 250 0 gusting 6 7.2
2019-Dec-05 20:56 229 7.2
2019-Dec-05 20:51 056 7.2
2019-Dec-05 20:46 260 1 gusting 8 7.2
2019-Dec-05 20:41 142 7.2
2019-Dec-05 20:36 061 0 gusting 6 7.2
2019-Dec-05 20:31 233 7.2
2019-Dec-05 20:26 344 0 gusting 2 7.2
2019-Dec-05 20:21 326 0 gusting 6 7.8
2019-Dec-05 20:16 282 1 gusting 7 7.8
2019-Dec-05 20:11 180 0 gusting 7 7.8
2019-Dec-05 20:06 332 7.8
2019-Dec-05 20:01 239 0 gusting 7 7.8
2019-Dec-05 19:56 260 0 gusting 7 7.8
2019-Dec-05 19:51 249 0 gusting 4 7.8
2019-Dec-05 19:46 228 7.8
2019-Dec-05 19:41 102 7.8
2019-Dec-05 19:36 274 0 gusting 6 7.8
2019-Dec-05 19:31 280 0 gusting 13 7.8
2019-Dec-05 19:26 210 7.8
2019-Dec-05 19:21 320 2 gusting 6 7.8
2019-Dec-05 19:16 333 7.8
2019-Dec-05 19:11 240 0 gusting 5 7.8
2019-Dec-05 19:06 257 0 gusting 7 7.8
2019-Dec-05 19:01 265 1 gusting 7 7.8
2019-Dec-05 18:56 260 0 gusting 2 7.2
2019-Dec-05 18:51 317 7.2
2019-Dec-05 18:46 236 0 gusting 7 7.2
2019-Dec-05 18:41 273 4 gusting 14 7.2
2019-Dec-05 18:36 237 1 gusting 7 7.2
2019-Dec-05 18:31 294 1 gusting 10 7.2
2019-Dec-05 18:26 309 1 gusting 8 7.2
2019-Dec-05 18:21 248 1 gusting 10 7.2
2019-Dec-05 18:16 238 0 gusting 4 7.2
2019-Dec-05 18:11 272 7.2
2019-Dec-05 18:06 228 1 gusting 10 7.2
2019-Dec-05 18:01 261 0 gusting 10 7.2
2019-Dec-05 17:56 147 7.2
2019-Dec-05 17:51 022 6.7
2019-Dec-05 17:46 254 1 gusting 6 6.7
2019-Dec-05 17:41 278 6.7
2019-Dec-05 17:36 327 6.7
2019-Dec-05 17:31 106 0 gusting 6 6.7
2019-Dec-05 17:26 076 0 gusting 2 6.7
2019-Dec-05 17:21 209 0 gusting 6 6.7
2019-Dec-05 17:16 227 1 gusting 10 6.7
2019-Dec-05 17:11 317 0 gusting 10 6.7
2019-Dec-05 17:06 348 0 gusting 5 6.7
2019-Dec-05 17:01 259 1 gusting 8 6.7
2019-Dec-05 16:56 234 1 gusting 7 6.7
2019-Dec-05 16:51 236 1 gusting 10 6.7
2019-Dec-05 16:46 286 1 gusting 8 6.7
2019-Dec-05 16:41 035 1 gusting 10 6.7
2019-Dec-05 16:36 250 1 gusting 6 6.7
2019-Dec-05 16:31 349 0 gusting 8 6.1
2019-Dec-05 16:26 358 1 gusting 6 6.1
2019-Dec-05 16:21 334 3 gusting 13 6.1
2019-Dec-05 16:16 301 1 gusting 10 6.1
2019-Dec-05 16:11 012 2 gusting 5 6.1
2019-Dec-05 16:06 237 1 gusting 8 6.1
2019-Dec-05 16:01 027 1 gusting 8 6.1
2019-Dec-05 15:56 230 2 gusting 13 6.1
2019-Dec-05 15:51 267 2 gusting 8 6.1
2019-Dec-05 15:46 005 2 gusting 7 5.6
2019-Dec-05 15:41 268 1 gusting 13 5.6
2019-Dec-05 15:36 019 3 gusting 11 5.6
2019-Dec-05 15:31 299 3 gusting 10 5.6
2019-Dec-05 15:26 268 2 gusting 14 5.6
2019-Dec-05 15:21 262 0 gusting 14 5.6
2019-Dec-05 15:16 292 2 gusting 10 5.6
2019-Dec-05 15:11 273 0 gusting 14 5.6
2019-Dec-05 15:06 294 1 gusting 6 5.6
2019-Dec-05 15:01 266 1 gusting 10 5.0
2019-Dec-05 14:56 326 1 gusting 6 5.0
2019-Dec-05 14:51 260 0 gusting 8 5.0
2019-Dec-05 14:46 280 1 gusting 6 5.0
2019-Dec-05 14:41 238 2 gusting 14 5.0
2019-Dec-05 14:36 342 3 gusting 12 5.0
2019-Dec-05 14:31 023 1 gusting 6 5.0
2019-Dec-05 14:26 037 1 gusting 13 5.0
2019-Dec-05 14:21 253 3 gusting 10 4.4
2019-Dec-05 14:16 338 1 gusting 12 4.4
2019-Dec-05 14:11 233 1 gusting 5 4.4
2019-Dec-05 14:06 118 0 gusting 5 4.4
2019-Dec-05 14:01 137 0 gusting 4 4.4
2019-Dec-05 13:56 186 0 gusting 4 4.4
2019-Dec-05 13:51 179 4.4
2019-Dec-05 13:46 272 1 gusting 10 3.9
2019-Dec-05 13:41 048 1 gusting 10 3.9
2019-Dec-05 13:36 268 1 gusting 8 3.9
2019-Dec-05 13:31 260 1 gusting 11 3.9
2019-Dec-05 13:26 067 3.9
2019-Dec-05 13:21 249 0 gusting 7 3.9
2019-Dec-05 13:16 218 3 gusting 13 3.3
2019-Dec-05 13:11 190 3.3
2019-Dec-05 13:06 064 0 gusting 4 3.3
2019-Dec-05 13:01 285 1 gusting 6 3.3
2019-Dec-05 12:56 332 0 gusting 5 3.3
2019-Dec-05 12:51 250 1 gusting 6 3.3
2019-Dec-05 12:46 050 0 gusting 2 3.3
2019-Dec-05 12:41 307 3.3
2019-Dec-05 12:36 218 3.3
2019-Dec-05 12:31 240 0 gusting 2 3.3
2019-Dec-05 12:26 245 0 gusting 13 3.3
2019-Dec-05 12:21 011 0 gusting 5 3.3
2019-Dec-05 12:16 014 0 gusting 10 3.3
2019-Dec-05 12:11 246 1 gusting 13 3.3
2019-Dec-05 12:06 230 3.3
2019-Dec-05 12:01 238 1 gusting 8 3.3
2019-Dec-05 11:56 204 3.3
2019-Dec-05 11:51 067 0 gusting 2 3.3
2019-Dec-05 11:46 300 0 gusting 4 3.3
2019-Dec-05 11:41 251 1 gusting 7 3.3
2019-Dec-05 11:36 233 1 gusting 10 3.3
2019-Dec-05 11:31 189 0 gusting 10 2.8
2019-Dec-05 11:26 257 2 gusting 7 2.8
2019-Dec-05 11:21 167 2.8
2019-Dec-05 11:16 244 0 gusting 7 2.8
2019-Dec-05 11:11 025 2.8
2019-Dec-05 11:06 266 0 gusting 2 2.8
2019-Dec-05 11:01 015 2.8
2019-Dec-05 10:56 253 1 gusting 10 2.8
2019-Dec-05 10:51 334 2.8
2019-Dec-05 10:46 262 2.8
2019-Dec-05 10:41 001 0 gusting 2 2.8
2019-Dec-05 10:36 140 2.8
2019-Dec-05 10:31 002 0 gusting 7 2.8
2019-Dec-05 10:26 108 0 gusting 2 3.3
2019-Dec-05 10:21 238 3.3
2019-Dec-05 10:16 088 0 gusting 2 3.3
2019-Dec-05 10:11 321 1 gusting 10 3.3
2019-Dec-05 10:06 260 0 gusting 6 3.3
2019-Dec-05 10:01 321 3.3
2019-Dec-05 09:56 215 0 gusting 6 3.3
2019-Dec-05 09:51 208 0 gusting 7 3.3
2019-Dec-05 09:46 091 0 gusting 4 3.3
2019-Dec-05 09:41 236 0 gusting 6 3.3
2019-Dec-05 09:36 132 3.3
2019-Dec-05 09:31 072 0 gusting 7 3.3
2019-Dec-05 09:26 234 3.3
2019-Dec-05 09:21 237 3.3
2019-Dec-05 09:16 243 0 gusting 6 3.3
2019-Dec-05 09:11 239 3 gusting 12 3.3
2019-Dec-05 09:06 222 0 gusting 7 2.8
2019-Dec-05 09:01 240 0 gusting 4 2.8